Weather in Kugul'ta

Russia / Stavropol Krai     45°21′54″N   42°23′13″E
temp.,
°C
wind,
m/s
gust,
m/s
humid.,
%
clouds,
%
prec.,
mm/h
press.,
hPa
HPBL,
m
9 march, tue
tue900:00−1sw34767 0.0 1017106
03:00−1ssw237632 0.0 101755
06:00−1sw387337 0.0 1016170
09:00+2wsw6125661 0.0 10161230
12:00+4w91461100 0.0 10161519
15:00+2w7109097 0.7 1016699
18:00+1w4886100 1.3 1018423
21:00−1w41086100 1.3 1020336
10 march, wed
wed1000:00−2w387845 0.0 1021311
03:00−3w488154 0.0 1022409
06:00−3w478297 0.0 1024477
09:00−1wnw576593 0.0 10251150
12:00+1wnw4550100 0.0 10241300
15:00+1nw444489 0.0 10241318
18:00−1ne3563100 0.0 1023164
21:00−3ene5862100 0.0 1024446
11 march, thu
thu1100:00−3ene5858100 0.0 1023561
03:00−3e6859100 0.0 1023697
06:00−4e6977100 0.3 1023718
09:00−4e71077100 0.8 1024822
12:00−3e71063100 0.4 10231053
15:00−3e71057100 0.6 10231190
18:00−5e81171100 0.1 1023992
21:00−7e81176100 0.6 1024951
12 march, fri
fri1200:00−8ene81188100 0.9 1025873
03:00−9ene81190100 2.1 1025843
06:00−10ene81191100 1.0 1027758
09:00−9e71086100 1.6 1029760
12:00−7e7969100 0.2 1029903
15:00−5e6863100 0.2 10291028
18:00−7ese486997 0.0 1031465
21:00−9ese387862 0.0 1033327
13 march, sat
sat1300:00−10ese38859 0.0 1034301
03:00−11ese36874 0.0 1034200
06:00−11ese38880 0.0 1034290
09:00−9se698214 0.0 1034551
12:00−5ese687595 0.0 1033675
15:00−4se697464 0.0 1031724
18:00−6se598523 0.0 1030481
21:00−8se5108837 0.0 1031387